Regional Weather Roundup
Issued by NWS Newport/Morehead, NC

Current Version | Previous Version | Graphics & Text | Print | Product List | Glossary Off
Versions: 1 2 3 4 5 6 7 8 9 10 11 12 13 14 15 16 17 18 19 20 21 22 23 24 25 26 27 28 29 30 31 32 33 34 35 36 37 38 39 40 41 42 43 44 45 46 47 48 49 50

000
ASUS42 KMHX 291113
RWRMHX
WEATHER ROUNDUP FOR EASTERN NORTH CAROLINA
NATIONAL WEATHER SERVICE NEWPORT/MOREHEAD CITY NC
700 AM EDT FRI MAY 29 2015

NOTE: "FAIR" INDICATES FEW OR NO CLOUDS BELOW 12,000 FEET
WITH NO SIGNIFICANT WEATHER AND/OR OBSTRUCTIONS TO VISIBILITY

NCZ015>017-031-032-045>047-102-103-291200-
NORTH COAST

CITY           SKY/WX    TMP DP  RH WIND       PRES   REMARKS
EDENTON        SUNNY     65  63  94 CALM      30.23S
ELIZABETH CITY SUNNY     67  66  97 CALM      30.24R
KITTY HAWK       N/A     66  64  92 CALM      30.23R
MANTEO         SUNNY     65  64  95 CALM      30.24S

$$

NCZ045>047-081-094-103-104-291200-
CENTRAL COAST

CITY           SKY/WX    TMP DP  RH WIND       PRES   REMARKS
FRISCO         MOSUNNY   73  64  73 NE5       30.23R
SWANQUARTER      N/A     68 N/A N/A NE2       30.21S

$$

NCZ095-097-098-100-101-291200-
SOUTHERN COAST

CITY           SKY/WX    TMP DP  RH WIND       PRES   REMARKS
BEAUFORT       SUNNY     67  65  93 NE3       30.22R
CEDAR ISLAND     N/A     75 N/A N/A N3        30.27S
JACKSONVILLE   SUNNY     66  62  87 N3        30.22R
PINEY ISLAND   SUNNY    N/A N/A N/A N3        30.22S
WILMINGTON     SUNNY     64  61  90 NE3       30.21R


$$

NCZ011>013-027>030-043-044-078>080-089-090>093-098-291200-
COASTAL PLAIN

CITY           SKY/WX    TMP DP  RH WIND       PRES   REMARKS
AHOSKIE        MOSUNNY   65  63  90 CALM      30.24R
CLINTON        MOSUNNY   65  64  98 CALM      30.24R
ELIZABETHTOWN  CLEAR     63  63 100 CALM      30.22R
GOLDSBORO      SUNNY     67  64  87 CALM      30.21R
GREENVILLE     MOSUNNY   66  64  94 CALM      30.24R
HAVELOCK       SUNNY     63  59  87 CALM      30.24R
KENANSVILLE    SUNNY     62  60  96 CALM      30.25R
KINSTON        SUNNY     64  63  94 CALM      30.24R
NEW BERN       SUNNY     63  59  87 CALM      30.24R
RICHLANDS      SUNNY     61  57  88 CALM      30.23R
ROCKY MOUNT    SUNNY     68  65  90 CALM      30.24R
WASHINGTON       N/A     64  62  93 CALM      30.24R
WHITEVILLE     CLEAR     62  60  94 CALM      30.21R

$$

AMZ130-135-150-152-154-156-158-170-250-252-270-ANZ085-086-088-633-658-670-291200-
MARINE OBSERVATIONS

STATION/POSITION TIME  TEMP    WIND        PRES    WAVE   SWELL
                       AIR SEA DIR/SP/G            HT/PER HT/PER
                 (UTC) (F)     (DEG/KT/KT) (MB)    (FT/S) (FT/S)
CHESAPEAKE LIGHT 1000   69     200/  9/  9 1024.1
64 E VA BEACH    1050   67 65  110/  4/  6 1023.8    3/ 8   3/ 8
DUCK             1000   65 56  150/  3/  3 1022.7
2 E DUCK         1011      60                N/A     2/ 9
OREGON INLET     1000   68 77  350/  3/  4 1023.8
13E OREGON INLT  1100      74                N/A     3/ 8
HATTERAS CG      1000   74 76  340/  5/  6 1023.0
DIAMOND BUOY     1050   76 76   40/  4/  8 1023.5    4/ 9   3/ 9
CAPE LOOKOUT     1100   72      20/  5/  6 1022.9
BEAUFORT LAB     1000   68 75   50/  4/  5 1022.3
27 SE WRIGHTSVLE 1000      75   60/  8/  8   N/A
5 SE WRIGHTSVLE  1008   75 77   90/  6/  8 1022.2
225 S CAPE HAT   1050   75 74   70/ 14/ 16 1021.1    5/ 7   3/ 7
41 SE CHARLESTON 1050   77 78   60/  8/ 12 1021.0    4/ 8   3/ 8

$$


USA.gov is the U.S. government's official web portal to all federal, state and local government web resources and services.